Flag for U.S.A. Weather past 2 weeks in Plano, Texas, U.S.A.

Now
68 °F

Clear.


Feels Like: 68 °F
Forecast: 49 / 65 °F
Wind: 14 mph from South

Location: McKinney Municipal Airport

Current Time: Jan 28, 2015 at 10:59:24 PM

Latest Report: Jan 28, 2015 at 9:53 PM


Visibility: 10 mi

Pressure: 30.00 "Hg

Humidity: 36%

Dew point: 40 °F

Location of PlanoLocation

Historic Weather in Plano — Graph

°F

Plano temperature yesterday

Maximum temperature yesterday: 77 °F (at 2:53 PM)
Minimum temperature yesterday: 40 °F (at 5:53 AM)
Average temperature yesterday: 56 °F

Past Weeks' High & Low Weather Summary

 TemperatureHumidityPressure
High78 °F (Jan 28, 1:53 PM)97% (Jan 22, 8:53 AM)30.46 "Hg (Jan 22, 8:53 AM)
Low26 °F (Jan 16, 6:53 AM)19% (Jan 18, 2:53 PM)29.94 "Hg (Jan 25, 3:53 AM)
Average48 °F62%30.18 "Hg
* Reported Jan 13 9:53 PM — Jan 28 9:53 PM, Plano, Weather by CustomWeather, © 2014

Note: Actual official high and low records may vary slightly from our data, if they occured in-between our weather recording intervals... More about our weather records

Advertising

Plano weather history for previous 24 hours

 ConditionsComfort  
Time TempWeatherWind HumidityBarometerVisibility
9:53 PM
Jan 28
68 °FClear.14 mph36%30.00 "Hg10 mi
8:53 PM70 °FClear.18 mph35%29.98 "Hg10 mi
7:53 PM69 °FClear.16 mph39%30.00 "Hg10 mi
6:53 PM69 °FClear.12 mph39%29.99 "Hg10 mi
5:53 PM74 °FSunny.17 mph31%29.97 "Hg10 mi
4:53 PM76 °FSunny.16 mph27%29.99 "Hg10 mi
3:53 PM77 °FSunny.18 mph26%29.99 "Hg10 mi
2:53 PM77 °FSunny.21 mph24%29.99 "Hg10 mi
1:53 PM78 °FSunny.17 mph27%30.01 "Hg10 mi
12:53 PM75 °FSunny.17 mph32%30.05 "Hg10 mi
11:53 AM73 °FSunny.12 mph33%30.09 "Hg10 mi
10:53 AM67 °FSunny.9 mph44%30.13 "Hg10 mi
9:53 AM61 °FSunny.12 mph54%30.14 "Hg10 mi
8:53 AM53 °FSunny.9 mph72%30.14 "Hg10 mi
7:53 AM43 °FSunny.5 mph86%30.13 "Hg10 mi
6:53 AM44 °FClear.3 mph76%30.12 "Hg10 mi
5:53 AM43 °FClear.3 mph79%30.10 "Hg10 mi
4:53 AM41 °FClear.No wind82%30.09 "Hg10 mi
3:53 AM46 °FClear.3 mph73%30.09 "Hg10 mi
2:53 AM44 °FClear.No wind76%30.11 "Hg10 mi
1:53 AM45 °FClear.No wind76%30.11 "Hg10 mi
12:53 AM46 °FClear.3 mph77%30.11 "Hg10 mi
11:53 PM
Jan 27
50 °FClear.No wind68%30.12 "Hg10 mi
10:53 PM51 °FClear.No wind66%30.13 "Hg10 mi
Weather by CustomWeather, © 2014

See weather overviewHow to use our weather pages